Location: Izdebno
(52.6670°N, 16.2170°E)
Time: 09:07:12
(UTC+02:00)

Transit 2A Rocket - All Passes

Search period start: 15 June 2024 00:00
Search period end: 25 June 2024 00:00
Orbit: 583 x 910 km, 66.7° (Epoch: 14 June)

Date Brightness Start Highest point End Pass type
(mag) Time Alt. Az. Time Alt. Az. Time Alt. Az.
15 Jun - 01:36:32 10° W 01:41:11 28° NNW 01:46:12 10° NE visible
15 Jun - 03:21:23 10° NW 03:25:33 20° N 03:29:54 10° NE visible
15 Jun - 05:04:50 10° NW 05:09:55 29° NNE 05:15:10 10° E daylight
15 Jun - 06:47:22 10° NW 06:53:22 76° NE 06:59:28 10° SE daylight
15 Jun - 08:30:26 10° NW 08:35:29 29° WSW 08:40:35 10° SSW daylight
15 Jun - 21:29:46 10° SE 21:32:20 14° ESE 21:35:00 10° ENE daylight
15 Jun - 23:08:38 10° SSW 23:13:44 70° SE 23:19:22 10° NE visible
16 Jun - 00:51:49 10° W 00:56:44 36° NNW 01:02:03 10° NE visible
16 Jun - 02:36:42 10° NW 02:40:54 21° N 02:45:18 10° NE visible
16 Jun - 04:20:39 10° NW 04:25:22 25° NNE 04:30:16 10° ENE daylight
16 Jun - 06:03:18 10° NW 06:09:08 55° NE 06:15:08 10° ESE daylight
16 Jun - 07:46:02 10° NW 07:51:41 43° WSW 07:57:22 10° S daylight
16 Jun - 22:24:58 10° S 22:29:49 45° ESE 22:35:08 10° NE visible
17 Jun - 00:07:16 10° WSW 00:12:22 47° NW 00:17:57 10° NE visible
17 Jun - 01:51:56 10° WNW 01:56:17 23° NNW 02:00:52 10° NE visible
17 Jun - 03:36:21 10° NW 03:40:46 22° NNE 03:45:22 10° ENE visible
17 Jun - 05:19:14 10° NW 05:24:50 41° NE 05:30:34 10° ESE daylight
17 Jun - 07:01:48 10° NW 07:07:45 65° WSW 07:13:45 10° SSE daylight
17 Jun - 08:46:01 10° WNW 08:49:17 15° WSW 08:52:33 10° SW daylight
17 Jun - 21:41:42 10° S 21:46:02 28° ESE 21:50:43 10° NE daylight
17 Jun - 23:22:55 10° SW 23:28:07 67° NW 23:33:51 10° NE visible
18 Jun - 01:07:06 10° WNW 01:11:42 26° NNW 01:16:35 10° NE visible
18 Jun - 02:51:54 10° NW 02:56:08 21° N 03:00:33 10° NE visible
18 Jun - 04:35:09 10° NW 04:40:25 32° NNE 04:45:50 10° E daylight
18 Jun - 06:17:40 10° NW 06:23:42 88° NE 06:29:48 10° SE daylight
18 Jun - 08:00:59 10° WNW 08:05:39 24° WSW 08:10:19 10° SSW daylight
18 Jun - 20:59:00 10° SSE 21:02:23 18° ESE 21:05:57 10° ENE daylight
18 Jun - 22:38:48 10° SW 22:44:00 84° SE 22:49:45 10° NE visible
19 Jun - 00:22:21 10° W 00:27:11 32° NNW 00:32:24 10° NE visible
19 Jun - 02:07:17 10° NW 02:11:28 21° N 02:15:51 10° NE visible
19 Jun - 03:51:00 10° NW 03:55:55 27° NNE 04:00:59 10° ENE daylight
19 Jun - 05:33:35 10° NW 05:39:32 64° NE 05:45:35 10° SE daylight
19 Jun - 07:16:27 10° NW 07:21:53 36° WSW 07:27:20 10° S daylight
19 Jun - 20:18:02 10° ESE 20:18:51 10° E 20:19:40 10° E daylight
19 Jun - 21:54:58 10° SSW 22:00:00 55° ESE 22:05:33 10° NE daylight
19 Jun - 23:37:43 10° WSW 23:42:46 41° NW 23:48:17 10° NE visible
20 Jun - 01:22:31 10° WNW 01:26:49 22° N 01:31:21 10° NE visible
20 Jun - 03:06:45 10° NW 03:11:20 23° NNE 03:16:04 10° ENE visible
20 Jun - 04:49:31 10° NW 04:55:16 47° NE 05:01:08 10° ESE daylight
20 Jun - 06:32:09 10° NW 06:38:00 54° WSW 06:43:54 10° SSE daylight
20 Jun - 08:17:18 10° W 08:19:20 12° W 08:21:22 10° WSW daylight
20 Jun - 21:11:30 10° S 21:16:10 35° ESE 21:21:14 10° NE daylight
20 Jun - 22:53:15 10° WSW 22:58:29 57° NW 23:04:11 10° NE visible
21 Jun - 00:37:43 10° WNW 00:42:13 24° NNW 00:46:59 10° NE visible
21 Jun - 02:22:21 10° NW 02:26:41 21° N 02:31:12 10° NE visible
21 Jun - 04:05:26 10° NW 04:10:53 36° NNE 04:16:28 10° E daylight
21 Jun - 05:47:58 10° NW 05:54:00 79° SW 06:00:05 10° SSE daylight
21 Jun - 07:31:38 10° WNW 07:35:45 19° WSW 07:39:53 10° SSW daylight
21 Jun - 20:28:29 10° SSE 20:32:26 22° ESE 20:36:40 10° ENE daylight
21 Jun - 22:09:01 10° SW 22:14:17 82° NW 22:20:05 10° NE visible
21 Jun - 23:52:54 10° W 23:57:40 29° NNW 00:02:45 10° NE visible
22 Jun - 01:37:48 10° NW 01:42:02 21° N 01:46:26 10° NE visible
22 Jun - 03:21:18 10° NW 03:26:25 29° NNE 03:31:39 10° E visible
22 Jun - 05:03:52 10° NW 05:09:53 74° NE 05:15:59 10° SE daylight
22 Jun - 06:46:55 10° NW 06:52:03 30° WSW 06:57:11 10° S daylight
22 Jun - 19:46:18 10° SE 19:48:51 14° ESE 19:51:30 10° ENE daylight
22 Jun - 21:25:03 10° SSW 21:30:13 68° SE 21:35:56 10° NE daylight
22 Jun - 23:08:12 10° W 23:13:12 37° NNW 23:18:36 10° NE visible
23 Jun - 00:53:06 10° NW 00:57:22 21° N 01:01:50 10° NE visible
23 Jun - 02:37:05 10° NW 02:41:51 25° NNE 02:46:46 10° ENE visible
23 Jun - 04:19:47 10° NW 04:25:39 54° NE 04:31:38 10° ESE daylight
23 Jun - 06:02:31 10° NW 06:08:13 45° WSW 06:13:56 10° S daylight
23 Jun - 20:41:24 10° S 20:46:18 44° ESE 20:51:40 10° NE daylight
23 Jun - 22:23:39 10° WSW 22:28:50 49° NW 22:34:30 10° NE visible
24 Jun - 00:08:17 10° WNW 00:12:44 23° NNW 00:17:24 10° NE visible
24 Jun - 01:52:45 10° NW 01:57:15 22° N 02:01:52 10° ENE visible
24 Jun - 03:35:43 10° NW 03:41:19 40° NE 03:47:03 10° ESE visible
24 Jun - 05:18:17 10° NW 05:24:17 66° SW 05:30:17 10° SSE daylight
24 Jun - 07:02:26 10° WNW 07:05:49 16° WSW 07:09:12 10° SW daylight
24 Jun - 19:58:08 10° SSE 20:02:31 28° ESE 20:07:15 10° NE daylight
24 Jun - 21:39:18 10° SW 21:44:35 69° NW 21:50:24 10° NE daylight
24 Jun - 23:23:27 10° W 23:28:09 27° NNW 23:33:07 10° NE visible
